Miscellaneous Local Product
Issued by NWS North Platte, NE

Home | Current Version | Previous Version | Graphics & Text | Print | Product List | Glossary On
Versions: 1 2 3 4 5 6 7 8 9 10 11 12 13 14 15 16 17 18 19 20 21 22 23 24 25 26 27 28 29 30 31 32 33 34 35 36 37 38 39 40 41 42 43 44 45 46 47 48 49 50
892
AXUS43 KLBF 242310
MISLBF


WESTERN AND NORTH CENTRAL NEBRASKA HOURLY WEATHER ROUNDUP
NATIONAL WEATHER SERVICE NORTH PLATTE NE
600 PM CDT FRI MAR 24 2017

NOTE: "FAIR" INDICATES FEW OR NO CLOUDS BELOW 12,000 FEET WITH NO
SIGNIFICANT WEATHER AND/OR OBSTRUCTIONS TO VISIBILITY.

NOTE: STATIONS NOT REPORTING VARIABLES SUCH AS SKY/WEATHER OR
PRESSURE ARE PROVIDED BY RAWS AND APRS NETWORKS AND ARE NOT UNDER
NATIONAL WEATHER SERVICE QUALITY CONTROL.

...OBSERVATIONS IN AND NEAR THE EASTERN PANHANDLE OF NEBRASKA...

CITY           SKY/WX    TMP DP  RH WIND       PRES   REMARKS
PINE RIDGE     PTSUNNY   58  30  34 E10       30.08S
CHADRON        MOSUNNY   60  27  28 E9        30.07F
ALLIANCE       PTSUNNY   57  28  33 NE14G22   30.08R
SIDNEY         PTSUNNY   54  30  40 N15G25    30.10R
CRESCENT LAKE    N/A     54  28  36 NE13G20     N/A
$$

...OBSERVATIONS IN NORTHERN NEBRASKA AND FAR SOUTHERN SOUTH DAKOTA...

CITY           SKY/WX    TMP DP  RH WIND       PRES   REMARKS
WINNER         FAIR      54  33  45 NE14      30.08S
VALENTINE      PTSUNNY   56  27  32 NE20G28   30.07R
THEDFORD       CLOUDY    52  32  46 NE21G29   30.05S
AINSWORTH      CLOUDY    49  35  58 NE15      30.06S
O`NEILL        CLOUDY    43  39  86 N14G20    30.06R
ORD            RAIN      41  38  89 NE7       30.04R FOG
BROKEN BOW     RAIN      43  40  89 N8        30.05R
VALENTINE NWR    N/A     53  34  49 NE13G21     N/A
HALSEY           N/A     48  36  62 N9G20       N/A
BUTTE            N/A     46  37  72 N13G20      N/A
CHAMBERS         N/A     43  39  85 N3          N/A
EWING            N/A     42  40  92 NE6         N/A
$$

...OBSERVATIONS IN SOUTHWEST NEBRASKA AND FAR NORTHEAST COLORADO...

CITY           SKY/WX    TMP DP  RH WIND       PRES   REMARKS
WRAY           LGT RAIN  41  37  87 N21G36    30.11R
HOLYOKE        FAIR      50  41  71 E12       30.10S
IMPERIAL       LGT RAIN  44  38  79 N21       30.07S
OGALLALA       PTSUNNY   53  35  50 E12G20    30.08R
NORTH PLATTE   LGT RAIN  46  41  82 NE6       30.07R
MCCOOK         CLOUDY    41  40  96 N15       30.02R
LEXINGTON      DRIZZLE   41  38  90 N17G31    30.01F
STAPLETON        N/A     46  37  72 CALM        N/A
GOTHENBURG       N/A     40  38  92 N7          N/A
CALLAWAY         N/A     41  40  96 NE12        N/A
$$

...OBSERVATIONS IN CENTRAL LINCOLN COUNTY AREA...

CITY           SKY/WX    TMP DP  RH WIND       PRES   REMARKS
N.P. AIRPORT   LGT RAIN  46  41  82 NE6       30.07R
N.P. DOWNTOWN    N/A     45  39  80 NE5         N/A
N.P. SOUTHEAST   N/A     44  39  83 CALM        N/A
N.P. HILLCREST   N/A     45  40  84 E5          N/A
$$

...SOME OBSERVATIONS FROM AROUND THE REGION...

CITY           SKY/WX    TMP DP  RH WIND       PRES   REMARKS
DENVER         MOSUNNY   52  31  44 NE16G23   30.12S
LIMON          SUNNY     42  37  82 N13       30.12R
ASPEN          CLOUDY    48  24  39 VRB5      30.14F
LARAMIE        SUNNY     49  20  31 N12       30.11F
GILLETTE       SUNNY     58  27  30 S10       29.99F
CHEYENNE       MOSUNNY   51  22  31 N15G23    30.11F
SCOTTSBLUFF    PTSUNNY   57  27  31 NE12      30.09S
GRAND ISLAND   CLOUDY    40  40 100 N18       29.99S WCI  31
OMAHA          LGT RAIN  44  40  85 N16       29.97R FOG
SIOUX FALLS    CLOUDY    41  37  86 N18       30.07R
PIERRE         SUNNY     56  31  38 E13       30.09S
RAPID CITY     SUNNY     61  28  28 E10       30.05F
BISMARCK       SUNNY     46  34  62 E13       30.15S
KANSAS CITY    CLOUDY    60  59  96 SE10      29.84F
HILL CITY      CLOUDY    44  40  85 N23G30    29.97R
WICHITA        TSTM      61  32  33 N7        29.73R
DODGE CITY     LGT RAIN  46  44  93 N22G33    29.87R FOG
OKLAHOMA CITY  CLOUDY    72  29  20 S16G29    29.67S
DALLAS         MOSUNNY   78  53  41 S21G28    29.73F
AMARILLO       CLOUDY    51  38  60 NW33G46   29.91R
$$




USA.gov is the U.S. government's official web portal to all federal, state and local government web resources and services.